140  
ASPQ40 PGUM 200710  
RWRPQ  
WEATHER ROUNDUP FOR THE MARIANAS AND MICRONESIA  
NATIONAL WEATHER SERVICE TIYAN GU  
500 PM CHST WED MAR 20 2019  
 
GUZ001>004-200800-  
MARIANA ISLANDS-  
 
CITY SKY/WX TMP DP RH WIND PRES REMARKS
 
GUAM AIRPORT PTSUNNY 84 72 65 NE14 29.83R  
ANDERSEN AFB PTSUNNY 81 72 74 NE13 29.83S  
ROTA AIRPORT MOSUNNY 79 73 83 NE15 29.82R  
TINIAN AP MOSUNNY 82 73 74 E16 29.81S  
SAIPAN AP MOSUNNY 82 72 69 NE14 29.83R  
 

 
 
PMZ161-200800-  
REPUBLIC OF PALAU-  
 
CITY SKY/WX TMP DP RH WIND PRES REMARKS
 
KOROR AP PTSUNNY 82 73 74 NE12G22 29.78F  
KOROR WSO NOT AVBL  
 

 
 
PMZ171>174-200800-  
FEDERATED STATES OF MICRONESIA-  
 
CITY SKY/WX TMP DP RH WIND PRES REMARKS
 
YAP AIRPORT PTSUNNY 84 75 74 NE12 29.79S HX 92  
CHUUK AP LGT RAIN 79 77 94 VRB6 29.73R  
POHNPEI AP NOT AVBL  
POHNPEI WSO LGT RAIN 77 75 94 E2 29.80R  
KOSRAE AP NOT AVBL  
 

 
 
PMZ181-200800-  
REPUBLIC OF THE MARSHALL ISLANDS-  
 
CITY SKY/WX TMP DP RH WIND PRES REMARKS
 
KWAJALEIN AP PTCLDY 84 75 74 E15 29.80R HX 92  
MAJURO AP MOCLDY 84 77 79 NE18 29.77S HX 94  
MAJURO WSO MOCLDY 82 75 78 E8 29.76R  
 

 
 
 
 
CLICK HERE TO GO TO PREVIOUS BULLETINS.

The Nexlab GU Page Main Text Page